Location: Beuvrequen
(50.8014°N, 1.6652°E)
Time: 21:36:13
(UTC+00:00)

COSMO-SKYMED 1 - Pass Details

Date: 16 October 2021
Orbit: 621 x 623 km, 97.9° (Epoch: 05 December)

Event Time Altitude Azimuth Distance (km) Brightness Sun altitude
Rises 18:37:16 0° 10° (N) 2,920 6.0 -16.3°
Reaches altitude 10° 18:39:30 10° 5° (N) 2,008 5.2 -16.7°
Maximum altitude 18:43:44 52° 290° (WNW) 778 3.4 -17.3°
Drops below altitude 10° 18:47:57 10° 214° (SW) 1,992 5.5 -18.0°
Sets 18:50:10 0° 210° (SSW) 2,893 6.3 -18.3°
